Location: Moscow
(55.7500°N, 37.5830°E)
Time: 07:28:05
(UTC+03:00)

N. Korean satellite - Pass Details

Date: 25 October 2021
Orbit: 446 x 495 km, 97.3° (Epoch: 04 December)

Event Time Altitude Azimuth Distance (km) Brightness Sun altitude
Rises 04:55:18 0° 24° (NNE) 2,602 10.7 -21.0°
Reaches altitude 10° 04:57:51 10° 43° (NE) 1,711 10.0 -20.7°
Maximum altitude 05:00:34 19° 90° (E) 1,223 9.5 -20.3°
Drops below altitude 10° 05:03:16 10° 138° (SE) 1,690 9.7 -19.9°
Sets 05:05:46 0° 157° (SSE) 2,559 10.4 -19.5°
